{"data":{"norad_id":60128,"intl_designator":"2024-118R","name":"STARLINK-31813","alt_names":[],"object_type":"PAYLOAD","status":"ACTIVE","operator":null,"country":"US","launch_date":"2024-06-24","launch_site_code":"AFWTR","launch_vehicle":null,"mission":null,"orbit_class":"UNKNOWN","rcs_meters":null,"size_class":null,"mass_kg":null,"dimensions":null,"purposes":["comms"],"wikipedia_slug":null,"has_3d_model":false,"image_url":null,"decayed_at":null,"tle_current":{"epoch":"2026-09-21T06:35:08.177280Z","epoch_age_seconds":114614,"freshness":"FRESH","line1":"1 60128U 24118R   26264.27440020  .00001982  00000+0  75631-4 0  9997","line2":"2 60128  53.1585 196.6669 0001486  74.1799 285.9367 15.31697673125663","mean_motion":15.31697673,"eccentricity":0.0001486,"inclination_deg":53.1585,"raan_deg":196.6669,"arg_perigee_deg":74.1799,"mean_anomaly_deg":285.9367,"bstar":7.5631e-5,"rev_number":12566,"period_min":94.01333078868,"perigee_km":469.72918774806,"apogee_km":471.76467605262,"semimajor_km":6848.8839319003,"source":"CELESTRAK","updated_at":"2026-09-22T09:00:49.157881Z"}}}